[[[{"header":{"parameterUnit":"kt","parameterCategory":2,"dx":1,"dy":1,"la1":30.253999710083008,"la2":30.299108505249023,"lo1":-89.0895004272461,"lo2":-89.04439544677734,"nx":28,"ny":28,"refTime":"2022-10-13T21:00:00:Z","depth":0,"parameterNumber":1,"parameterNumberName":"U-component_of_WINDS"},"data":[-2.538,-2.5471,-2.5488,-2.56,-2.5634,-2.5715,-2.5749,-2.5795,-2.5837,-2.5936,-2.5996,-2.6023,-2.6073,-2.615,-2.6218,-2.6229,-2.6257,-2.6278,-2.6288,-2.6179,-2.6165,-2.6152,-2.6132,-2.6283,-2.6283,-2.6398,-2.6399,-2.64,-2.53,-2.5334,-2.5397,-2.5471,-2.5526,-2.5516,-2.5574,-2.5622,-2.5695,-2.5746,-2.5806,-2.5896,-2.5969,-2.6012,-2.6086,-2.6132,-2.6133,-2.6151,-2.6149,-2.6158,-2.6042,-2.6019,-2.6149,-2.6149,-2.6149,-2.6149,-2.6149,-2.6149,-2.5158,-2.5212,-2.5266,-2.5336,-2.5377,-2.5426,-2.5481,-2.5512,-2.5576,-2.5654,-2.5662,-2.5745,-2.5801,-2.5899,-2.5936,-2.6003,-2.5987,-2.6013,-2.602,-2.6027,-2.6032,-2.5867,-2.6016,-2.6016,-2.6016,-2.6015,-2.6015,0,-2.5061,-2.5071,-2.5133,-2.52,-2.5252,-2.5306,-2.5359,-2.5393,-2.5421,-2.5473,-2.555,-2.5597,-2.5692,-2.5767,-2.584,-2.5874,-2.5873,-2.5873,-2.5892,-2.5891,-2.588,-2.5889,-2.5701,-2.5869,-2.5868,-2.5867,-2.5867,-2.5866,-2.4922,-2.4982,-2.5046,-2.5087,-2.512,-2.5187,-2.5231,-2.525,-2.5296,-2.5365,-2.5413,-2.5488,-2.5549,-2.5671,-2.5709,-2.578,-2.5781,-2.5843,-2.5792,-2.5787,-2.5785,-2.5782,-2.5789,-2.5854,-2.5855,-2.5857,-2.5858,0,-2.4843,-2.4868,-2.4967,-2.5025,-2.5041,-2.5104,-2.5154,-2.521,-2.5234,-2.5314,-2.5334,-2.5374,-2.545,-2.5478,-2.557,-2.5583,-2.5691,-2.5688,-2.5672,-2.5674,-2.5735,-2.573,-2.5923,-2.595,-2.5791,-2.5792,-2.5793,0,-2.4735,-2.4814,-2.4849,-2.4905,-2.4993,-2.5011,-2.5098,-2.5128,-2.5175,-2.5239,-2.5239,-2.5299,-2.5325,-2.5389,-2.5408,-2.5501,-2.5518,-2.5534,-2.5539,-2.5536,-2.5534,-2.5563,-2.5557,-2.5543,-2.5542,-2.5541,-2.5541,0,-2.461,-2.472,-2.4811,-2.4841,-2.491,-2.4953,-2.4984,-2.5037,-2.508,-2.514,-2.5169,-2.5238,-2.5277,-2.5331,-2.5355,-2.5319,-2.5468,-2.5424,-2.5485,-2.5485,-2.5519,-2.5517,-2.5678,-2.5539,-2.5539,-2.5539,-2.5538,0,-2.4529,-2.4587,-2.4714,-2.4772,-2.4801,-2.4861,-2.4929,-2.4987,-2.5043,-2.5058,-2.5106,-2.511,-2.5192,-2.5146,-2.526,-2.5207,-2.5245,-2.5267,-2.5272,-2.5284,-2.5232,-2.5323,-2.5471,-2.5489,-2.5291,-2.5289,-2.5287,0,-2.438,-2.4514,-2.453,-2.4651,-2.4717,-2.4713,-2.478,-2.4829,-2.4855,-2.4916,-2.4945,-2.5015,-2.4986,-2.5012,-2.5064,-2.5098,-2.5167,-2.5089,-2.5182,-2.5185,-2.5169,-2.5305,-2.5321,-2.5435,-2.5261,-2.5264,-2.5266,0,-2.4268,-2.435,-2.437,-2.4405,-2.4472,-2.4527,-2.4604,-2.4676,-2.4716,-2.4771,-2.4837,-2.4935,-2.4919,-2.4961,-2.4972,-2.5025,-2.5121,-2.5001,-2.5003,-2.5023,-2.525,-2.5265,-2.5284,-2.5117,-2.512,-2.5123,-2.5245,0,-2.4143,-2.4213,-2.4268,-2.4343,-2.439,-2.4466,-2.4494,-2.454,-2.4545,-2.457,-2.4668,-2.4716,-2.4791,-2.4819,-2.4825,-2.4936,-2.4923,-2.4904,-2.4864,-2.4952,-2.4993,-2.501,-2.48,-2.4799,-2.4798,-2.4797,0,0,-2.3996,-2.4096,-2.4111,-2.4185,-2.4225,-2.422,-2.4299,-2.4338,-2.4417,-2.4446,-2.4423,-2.4569,-2.4609,-2.4725,-2.4754,-2.4784,-2.4808,-2.4776,-2.4909,-2.4921,-2.4933,-2.4977,-2.4993,-2.4795,-2.4795,-2.4795,-2.4795,0,-2.3956,-2.3993,-2.407,-2.4111,-2.4171,-2.4194,-2.4212,-2.4272,-2.4292,-2.4386,-2.4382,-2.4444,-2.4559,-2.4603,-2.4641,-2.4762,-2.4757,-2.4782,-2.4838,-2.4899,-2.4913,-2.4925,-2.497,-2.4986,-2.4792,-2.4793,-2.4793,0,-2.3852,-2.3895,-2.3934,-2.4024,-2.4064,-2.4132,-2.4095,-2.4168,-2.4219,-2.4211,-2.4305,-2.4336,-2.4397,-2.4502,-2.455,-2.4531,-2.4708,-2.4657,-2.4663,-2.467,-2.473,-2.4746,-2.4761,-2.4572,-2.4571,-2.457,0,0,-2.3815,-2.3879,-2.3931,-2.4017,-2.4043,-2.4077,-2.4116,-2.4125,-2.4178,-2.42,-2.424,-2.4293,-2.4361,-2.4405,-2.4469,-2.4579,-2.4595,-2.4628,-2.4639,-2.4647,-2.4658,-2.4721,-2.4737,-2.4567,-2.4566,-2.4566,0,0,-2.3797,-2.386,-2.3855,-2.3959,-2.4009,-2.4068,-2.412,-2.4116,-2.4177,-2.4172,-2.4192,-2.4207,-2.4305,-2.4336,-2.4287,-2.4456,-2.4415,-2.4427,-2.4433,-2.4446,-2.4456,-2.4448,-2.4258,0,0,0,0,0,-2.3771,-2.3852,-2.3847,-2.3868,-2.3982,-2.407,-2.4085,-2.4102,-2.4073,-2.4114,-2.4147,-2.4138,-2.4314,-2.4271,-2.4293,-2.4348,-2.4523,-2.4531,-2.4538,-2.4571,-2.4585,-2.4597,0,0,0,0,0,0,-2.3779,-2.3805,-2.3845,-2.3906,-2.3932,-2.4067,-2.4021,-2.4028,-2.4069,-2.4066,-2.4132,-2.414,-2.4158,-2.4261,-2.4281,-2.4333,-2.4252,-2.4526,-2.4533,-2.4539,-2.4576,-2.4587,-2.4597,0,0,0,0,0,-2.3786,-2.3807,-2.3985,-2.3905,-2.3928,-2.3971,-2.4018,-2.4024,-2.4056,-2.4106,-2.4114,-2.4065,-2.4159,-2.4177,-2.4273,-2.4323,-2.4238,-2.4246,-2.453,-2.4536,-2.454,-2.4581,0,0,0,0,0,0,-2.3791,-2.3814,-2.399,-2.3997,-2.3876,-2.3964,-2.3978,-2.402,-2.4094,-2.4103,-2.4041,-2.4037,-2.416,-2.4174,-2.4188,-2.4319,-2.4228,-2.4235,-2.4239,-2.4534,-2.4538,-2.4542,0,0,0,0,0,0,-2.3802,-2.382,-2.3994,-2.3955,-2.3958,-2.3957,-2.397,-2.4054,-2.4095,-2.4024,-2.4024,-2.4038,-2.4141,-2.4173,-2.4183,-2.4315,-2.4219,-2.4226,-2.4231,-2.4234,-2.4538,-2.4541,0,0,0,0,0,0,-2.381,-2.3825,-2.3953,-2.3956,-2.3958,-2.4045,-2.4032,-2.4149,-2.406,-2.4021,-2.4053,-2.405,-2.414,-2.4151,-2.418,-2.4307,-2.4313,-2.4219,-2.4224,-2.4228,-2.423,0,0,0,0,0,0,0,-2.3817,-2.3711,-2.3945,-2.3956,-2.3958,-2.4067,-2.4069,-2.4071,-2.4059,-2.4057,-2.4054,-2.4051,-2.4179,-2.4187,-2.4195,-2.4301,0,0,-2.4219,-2.4222,0,0,0,0,0,0,0,0,-2.3705,-2.3709,-2.3945,-2.3946,-2.3948,-2.4068,-2.4069,-2.4071,-2.4059,-2.4057,-2.4054,-2.4052,-2.4181,-2.4187,-2.4194,0,0,0,0,0,0,0,0,0,0,0,0,0,0,0,-2.3945,-2.3946,0,-2.4068,-2.4069,-2.4071,-2.4059,-2.4057,-2.4055,-2.4053,-2.4183,-2.4188,-2.4193,0,0,0,0,0,0,0,0,0,0,0,0,0,0,0,0,0,0,0,0,0,0,0,0,0,0,0,0,0,0,0,0,0,0,0,0,0,0,0,0,0,0,0,0,0,0,0,0,0,0,0,0,0,0,0,0,0,0,0,0,0,0,0,0,0,0,0,0,0]}],[{"header":{"parameterUnit":"kt","parameterCategory":2,"dx":1,"dy":1,"la1":30.253999710083008,"la2":30.299108505249023,"lo1":-89.0895004272461,"lo2":-89.04439544677734,"nx":28,"ny":28,"refTime":"2022-10-13T21:00:00:Z","depth":0,"parameterNumber":2,"parameterNumberName":"V-component_of_WINDS"},"data":[0.1728,0.169,0.1647,0.1582,0.1532,0.1478,0.1445,0.1397,0.1346,0.1275,0.1225,0.1174,0.1102,0.1029,0.097,0.0947,0.0925,0.0945,0.0914,0.0871,0.0862,0.0853,0.086,0.0941,0.0941,0.0965,0.0965,0.0965,0.1702,0.1653,0.1607,0.1531,0.149,0.1446,0.1381,0.1348,0.13,0.1237,0.1186,0.1118,0.1057,0.0976,0.0908,0.0885,0.0858,0.087,0.0869,0.0858,0.0811,0.0819,0.0893,0.0893,0.0893,0.0893,0.0893,0.0893,0.1643,0.1622,0.1551,0.1499,0.1449,0.1398,0.1368,0.1307,0.1258,0.1185,0.1139,0.1083,0.1008,0.0902,0.0854,0.0806,0.0783,0.078,0.0779,0.0779,0.0786,0.0757,0.0792,0.0791,0.0791,0.0791,0.079,0,0.1585,0.1551,0.1502,0.1441,0.14,0.1348,0.1291,0.1271,0.1176,0.1139,0.1081,0.1039,0.0954,0.0891,0.0816,0.0765,0.0709,0.0698,0.0696,0.0717,0.0748,0.073,0.0654,0.0697,0.0696,0.0695,0.0695,0.0694,0.1521,0.1502,0.1405,0.1377,0.1335,0.129,0.1253,0.1172,0.1136,0.1051,0.1034,0.0971,0.0916,0.0826,0.0748,0.0683,0.0654,0.0676,0.0644,0.0667,0.0653,0.0655,0.0651,0.0684,0.0685,0.0686,0.0687,0,0.1489,0.1416,0.1371,0.1276,0.1251,0.1233,0.115,0.1123,0.1065,0.1019,0.1003,0.091,0.0851,0.077,0.0685,0.0644,0.0608,0.0583,0.0634,0.0624,0.0635,0.0634,0.0683,0.0685,0.0601,0.0602,0.0603,0,0.1405,0.1381,0.1273,0.1251,0.1221,0.114,0.1112,0.1059,0.0993,0.0956,0.0883,0.0849,0.075,0.0703,0.0642,0.0598,0.0582,0.0547,0.0531,0.0553,0.0557,0.0529,0.0524,0.0496,0.0496,0.0495,0.0495,0,0.1361,0.1275,0.1238,0.1206,0.11,0.1084,0.1039,0.0964,0.0928,0.0867,0.0842,0.0776,0.0739,0.0688,0.061,0.0591,0.0555,0.0512,0.0518,0.052,0.0513,0.0514,0.058,0.0495,0.0495,0.0495,0.0495,0,0.128,0.1225,0.1182,0.1092,0.1072,0.1047,0.0978,0.0938,0.0864,0.0825,0.0775,0.0715,0.0671,0.0635,0.0572,0.057,0.0537,0.0499,0.0498,0.0487,0.0449,0.0496,0.0569,0.0572,0.048,0.048,0.048,0,0.125,0.1187,0.1117,0.1077,0.1037,0.0957,0.0927,0.0864,0.0809,0.0764,0.0701,0.065,0.0606,0.0578,0.0558,0.049,0.0493,0.0487,0.0418,0.0416,0.044,0.0506,0.0537,0.0562,0.0477,0.0478,0.0478,0,0.1216,0.109,0.1088,0.1047,0.0953,0.0918,0.0884,0.0815,0.079,0.0727,0.0694,0.0619,0.0582,0.0536,0.0479,0.0462,0.0488,0.0424,0.042,0.0437,0.0469,0.0499,0.0504,0.0453,0.0453,0.0453,0.0476,0,0.111,0.1069,0.106,0.0974,0.0935,0.0905,0.082,0.0789,0.074,0.0682,0.0631,0.0556,0.0482,0.0466,0.0416,0.0405,0.0393,0.0353,0.031,0.0355,0.036,0.0362,0.031,0.0308,0.0307,0.0306,0,0,0.1098,0.1037,0.096,0.0924,0.0886,0.0803,0.0778,0.073,0.0635,0.0609,0.0585,0.0469,0.0407,0.0354,0.0361,0.0332,0.0321,0.0308,0.0335,0.0339,0.0342,0.0349,0.0352,0.0303,0.0302,0.0302,0.0301,0,0.1041,0.0987,0.0966,0.0913,0.0834,0.0774,0.0769,0.0673,0.0634,0.0585,0.0514,0.0472,0.0381,0.0325,0.0285,0.0313,0.0259,0.0297,0.0342,0.0323,0.0329,0.0333,0.0342,0.0346,0.0298,0.0298,0.0298,0,0.0992,0.0925,0.0905,0.0816,0.0762,0.0721,0.0657,0.0616,0.0584,0.049,0.0442,0.0388,0.0305,0.0267,0.0246,0.0222,0.0209,0.0197,0.0204,0.0199,0.0176,0.0183,0.0189,0.0107,0.0107,0.0106,0,0,0.0955,0.0916,0.0815,0.0797,0.0768,0.0679,0.0648,0.0595,0.0526,0.0498,0.0427,0.0359,0.0304,0.027,0.0214,0.0184,0.0158,0.0177,0.0186,0.0194,0.0194,0.0172,0.0179,0.0105,0.0105,0.0105,0,0,0.0935,0.0819,0.0782,0.0751,0.0689,0.0586,0.0577,0.0528,0.0469,0.0463,0.0367,0.0345,0.0307,0.0255,0.0251,0.0196,0.0155,0.0154,0.0231,0.0241,0.025,0.0262,0.0171,0,0,0,0,0,0.0834,0.0834,0.0802,0.0784,0.0668,0.0605,0.0589,0.0513,0.0487,0.0481,0.0413,0.0358,0.0234,0.0228,0.021,0.0214,0.0091,0.0094,0.0096,0.0187,0.0199,0.0209,0,0,0,0,0,0,0.0826,0.0805,0.0801,0.0701,0.0674,0.0604,0.0542,0.0521,0.0485,0.0476,0.0373,0.0355,0.0286,0.0232,0.0216,0.0222,0.0176,0.0092,0.0094,0.0096,0.0191,0.0201,0.0209,0,0,0,0,0,0.0819,0.0802,0.0637,0.07,0.0676,0.0575,0.0542,0.0524,0.0494,0.0389,0.0369,0.044,0.0288,0.027,0.0222,0.0231,0.0186,0.0181,0.0093,0.0095,0.0097,0.0196,0,0,0,0,0,0,0.0815,0.0784,0.0631,0.062,0.0694,0.0577,0.0557,0.0526,0.0407,0.0388,0.0451,0.0445,0.029,0.0275,0.0261,0.0239,0.0194,0.0189,0.0185,0.0095,0.0096,0.0097,0,0,0,0,0,0,0.0792,0.0776,0.0625,0.0623,0.0612,0.058,0.0562,0.0509,0.0407,0.0476,0.0467,0.045,0.0309,0.0279,0.0268,0.0189,0.0201,0.0195,0.0192,0.0189,0.0096,0.0097,0,0,0,0,0,0,0.0784,0.077,0.0625,0.0616,0.0606,0.0487,0.0532,0.0416,0.0409,0.0482,0.0406,0.0405,0.0314,0.0302,0.0273,0.0199,0.0192,0.02,0.0197,0.0194,0.0193,0,0,0,0,0,0,0,0.0777,0.0892,0.0691,0.0611,0.0602,0.0527,0.0524,0.0522,0.0409,0.0408,0.0406,0.0405,0.0231,0.0225,0.0219,0.0208,0,0,0.0201,0.0198,0,0,0,0,0,0,0,0,0.0896,0.0893,0.0691,0.0689,0.0687,0.0527,0.0524,0.0522,0.0409,0.0408,0.0407,0.0406,0.0229,0.0225,0.022,0,0,0,0,0,0,0,0,0,0,0,0,0,0,0,0.0691,0.0689,0,0.0526,0.0525,0.0523,0.0409,0.0408,0.0407,0.0406,0.0228,0.0224,0.022,0,0,0,0,0,0,0,0,0,0,0,0,0,0,0,0,0,0,0,0,0,0,0,0,0,0,0,0,0,0,0,0,0,0,0,0,0,0,0,0,0,0,0,0,0,0,0,0,0,0,0,0,0,0,0,0,0,0,0,0,0,0,0,0,0,0,0,0,0]}]]]